TimeAKDT,TemperatureF,Dew PointF,Humidity,Sea Level PressureIn,VisibilityMPH,Wind Direction,Wind SpeedMPH,Gust SpeedMPH,PrecipitationIn,Events,Conditions,WindDirDegrees,DateUTC
12:16 AM,50.0,37.4,62,29.82,10.0,Calm,Calm,-,N/A,,Clear,0,2012-07-06 08:16:00
12:36 AM,50.0,37.4,62,29.82,10.0,Calm,Calm,-,N/A,,Clear,0,2012-07-06 08:36:00
12:56 AM,48.2,37.4,66,29.82,10.0,Calm,Calm,-,N/A,,Partly Cloudy,0,2012-07-06 08:56:00
1:16 AM,48.2,37.4,66,29.83,10.0,Calm,Calm,-,N/A,,Partly Cloudy,0,2012-07-06 09:16:00
1:36 AM,46.4,37.4,71,29.83,10.0,ESE,3.5,-,N/A,,Clear,110,2012-07-06 09:36:00
1:56 AM,46.4,37.4,71,29.84,10.0,East,5.8,-,N/A,,Clear,90,2012-07-06 09:56:00
2:16 AM,46.4,37.4,71,29.84,10.0,Calm,Calm,-,N/A,,Partly Cloudy,0,2012-07-06 10:16:00
2:36 AM,46.4,37.4,71,29.85,10.0,ESE,6.9,-,N/A,,Scattered Clouds,110,2012-07-06 10:36:00
2:56 AM,46.4,37.4,71,29.85,10.0,ESE,4.6,-,N/A,,Mostly Cloudy,120,2012-07-06 10:56:00
3:16 AM,46.4,37.4,71,29.85,10.0,Calm,Calm,-,N/A,,Overcast,0,2012-07-06 11:16:00
3:36 AM,48.2,37.4,66,29.85,10.0,WNW,3.5,-,N/A,,Overcast,300,2012-07-06 11:36:00
3:56 AM,46.4,37.4,71,29.85,10.0,Calm,Calm,-,N/A,,Overcast,0,2012-07-06 11:56:00
4:16 AM,46.4,37.4,71,29.86,10.0,Calm,Calm,-,N/A,,Overcast,0,2012-07-06 12:16:00
4:36 AM,46.4,37.4,71,29.85,10.0,East,4.6,-,N/A,,Overcast,100,2012-07-06 12:36:00
4:56 AM,48.2,37.4,66,29.86,10.0,East,6.9,-,N/A,,Overcast,90,2012-07-06 12:56:00
5:16 AM,48.2,37.4,66,29.86,10.0,East,9.2,-,N/A,,Overcast,90,2012-07-06 13:16:00
5:36 AM,48.2,37.4,66,29.86,10.0,East,6.9,-,N/A,,Overcast,80,2012-07-06 13:36:00
5:56 AM,48.2,37.4,66,29.86,10.0,East,5.8,-,N/A,,Overcast,100,2012-07-06 13:56:00
6:16 AM,48.2,39.2,71,29.87,10.0,ENE,4.6,-,N/A,,Overcast,70,2012-07-06 14:16:00
6:36 AM,48.2,37.4,66,29.87,10.0,Calm,Calm,-,N/A,,Mostly Cloudy,0,2012-07-06 14:36:00
6:56 AM,48.2,39.2,71,29.87,10.0,Calm,Calm,-,N/A,,Overcast,0,2012-07-06 14:56:00
7:16 AM,48.2,39.2,71,29.87,10.0,Calm,Calm,-,N/A,,Overcast,0,2012-07-06 15:16:00
7:36 AM,48.2,39.2,71,29.87,10.0,Calm,Calm,-,N/A,,Overcast,0,2012-07-06 15:36:00
7:56 AM,48.2,39.2,71,29.87,10.0,Calm,Calm,-,N/A,,Overcast,0,2012-07-06 15:56:00
8:16 AM,50.0,41.0,71,29.87,10.0,NNE,4.6,-,N/A,,Mostly Cloudy,30,2012-07-06 16:16:00
8:36 AM,50.0,39.2,66,29.86,10.0,NE,3.5,-,N/A,,Mostly Cloudy,40,2012-07-06 16:36:00
8:56 AM,51.8,39.2,62,29.86,10.0,NE,4.6,-,N/A,,Mostly Cloudy,40,2012-07-06 16:56:00
9:16 AM,51.8,39.2,62,29.86,10.0,NE,5.8,-,N/A,,Mostly Cloudy,40,2012-07-06 17:16:00
9:36 AM,51.8,39.2,62,29.86,10.0,ENE,4.6,-,N/A,,Overcast,60,2012-07-06 17:36:00
9:56 AM,51.8,39.2,62,29.85,10.0,NE,5.8,-,N/A,,Overcast,50,2012-07-06 17:56:00
10:16 AM,53.6,41.0,62,29.86,10.0,NE,5.8,-,N/A,,Overcast,50,2012-07-06 18:16:00
10:36 AM,55.4,42.8,63,29.85,10.0,NE,6.9,-,N/A,,Mostly Cloudy,40,2012-07-06 18:36:00
10:56 AM,55.4,41.0,58,29.85,10.0,NE,9.2,-,N/A,,Mostly Cloudy,50,2012-07-06 18:56:00
11:16 AM,57.2,41.0,55,29.85,10.0,NE,10.4,-,N/A,,Mostly Cloudy,40,2012-07-06 19:16:00
11:36 AM,57.2,41.0,55,29.84,10.0,NE,8.1,-,N/A,,Overcast,40,2012-07-06 19:36:00
11:56 AM,57.2,41.0,55,29.84,10.0,ENE,11.5,-,N/A,,Overcast,60,2012-07-06 19:56:00
12:16 PM,57.2,42.8,59,29.84,10.0,NE,6.9,-,N/A,,Overcast,50,2012-07-06 20:16:00
12:36 PM,57.2,41.0,55,29.84,10.0,NE,6.9,-,N/A,,Overcast,50,2012-07-06 20:36:00
12:56 PM,57.2,41.0,55,29.84,10.0,NE,9.2,-,N/A,,Overcast,50,2012-07-06 20:56:00
1:16 PM,57.2,41.0,55,29.84,10.0,NE,10.4,-,N/A,,Overcast,50,2012-07-06 21:16:00
1:36 PM,57.2,42.8,59,29.84,10.0,NE,6.9,-,N/A,,Overcast,40,2012-07-06 21:36:00
1:56 PM,57.2,41.0,55,29.84,10.0,NE,6.9,-,N/A,,Overcast,50,2012-07-06 21:56:00
2:16 PM,57.2,41.0,55,29.84,10.0,NE,9.2,-,N/A,,Overcast,50,2012-07-06 22:16:00
2:36 PM,57.2,41.0,55,29.84,10.0,NE,11.5,-,N/A,,Mostly Cloudy,50,2012-07-06 22:36:00
2:56 PM,59.0,39.2,48,29.83,10.0,ENE,11.5,-,N/A,,Mostly Cloudy,60,2012-07-06 22:56:00
3:16 PM,59.0,41.0,51,29.83,10.0,NE,10.4,-,N/A,,Mostly Cloudy,40,2012-07-06 23:16:00
3:36 PM,59.0,42.8,55,29.83,10.0,NE,12.7,18.4,N/A,,Mostly Cloudy,40,2012-07-06 23:36:00
3:56 PM,59.0,42.8,55,29.83,10.0,NE,10.4,19.6,N/A,,Mostly Cloudy,40,2012-07-06 23:56:00
4:16 PM,59.0,42.8,55,29.83,10.0,NE,9.2,-,N/A,,Overcast,50,2012-07-07 00:16:00
4:36 PM,59.0,41.0,51,29.83,10.0,NE,9.2,17.3,N/A,,Mostly Cloudy,50,2012-07-07 00:36:00
4:56 PM,59.0,41.0,51,29.83,10.0,NNE,9.2,-,N/A,,Mostly Cloudy,30,2012-07-07 00:56:00
5:16 PM,60.8,41.0,48,29.83,10.0,NE,8.1,-,N/A,,Mostly Cloudy,40,2012-07-07 01:16:00
5:36 PM,60.8,42.8,52,29.83,10.0,NNE,5.8,-,N/A,,Overcast,30,2012-07-07 01:36:00
5:56 PM,60.8,42.8,52,29.83,10.0,ENE,8.1,-,N/A,,Overcast,60,2012-07-07 01:56:00
6:16 PM,60.8,39.2,45,29.83,10.0,ENE,9.2,-,N/A,,Overcast,70,2012-07-07 02:16:00
6:36 PM,59.0,42.8,55,29.83,10.0,East,4.6,-,N/A,,Overcast,90,2012-07-07 02:36:00
6:56 PM,57.2,42.8,59,29.83,10.0,East,4.6,-,N/A,,Overcast,100,2012-07-07 02:56:00
7:16 PM,57.2,42.8,59,29.83,10.0,ESE,5.8,-,N/A,,Overcast,110,2012-07-07 03:16:00
7:36 PM,57.2,42.8,59,29.83,10.0,East,6.9,-,N/A,,Overcast,100,2012-07-07 03:36:00
7:56 PM,57.2,41.0,55,29.83,10.0,East,5.8,-,N/A,,Overcast,100,2012-07-07 03:56:00
8:16 PM,57.2,41.0,55,29.84,10.0,ESE,4.6,-,N/A,,Overcast,110,2012-07-07 04:16:00
8:36 PM,57.2,42.8,59,29.84,10.0,East,3.5,-,N/A,,Overcast,100,2012-07-07 04:36:00
8:56 PM,57.2,41.0,55,29.84,10.0,East,3.5,-,N/A,,Overcast,90,2012-07-07 04:56:00
9:16 PM,57.2,41.0,55,29.84,10.0,Calm,Calm,-,N/A,,Overcast,0,2012-07-07 05:16:00
9:36 PM,57.2,41.0,55,29.84,10.0,East,3.5,-,N/A,,Overcast,90,2012-07-07 05:36:00
9:56 PM,55.4,42.8,63,29.84,10.0,ENE,3.5,-,N/A,,Overcast,70,2012-07-07 05:56:00
10:16 PM,55.4,42.8,63,29.84,10.0,East,6.9,-,N/A,,Overcast,90,2012-07-07 06:16:00
10:36 PM,55.4,41.0,58,29.84,10.0,East,4.6,-,N/A,,Overcast,80,2012-07-07 06:36:00
10:56 PM,55.4,42.8,63,29.85,10.0,NE,3.5,-,N/A,,Overcast,50,2012-07-07 06:56:00
11:16 PM,53.6,41.0,62,29.85,10.0,ESE,3.5,-,N/A,,Overcast,120,2012-07-07 07:16:00
11:36 PM,53.6,39.2,58,29.85,10.0,SE,3.5,-,N/A,,Overcast,130,2012-07-07 07:36:00
11:56 PM,53.6,42.8,67,29.85,10.0,ENE,4.6,-,N/A,,Overcast,70,2012-07-07 07:56:00